WLF284 KMIA-KMDW

Flight info

Callsign WLF284
Flight time 2h 54m
Altitude 32000
Route HURCN4 KPASA Q118 THRSR Q79 IIU DROSE FISSK7
Aircraft B738/M-SDE2E3FGHIRWXY/LB1

Departure

Time 2026-05-04 23:06
Airport Miami International Airport (KMIA)

Arrival

Time 2026-05-05 02:01
Airport Chicago Midway International Airport (KMDW)
Time Latitude Longitude Altitude Speed Heading
2026-05-04 22:39 25.79836 -80.28165 14 ft 0 kts 181°
2026-05-04 22:55 25.79847 -80.28165 13 ft 4 kts 186°
2026-05-04 22:55 25.79872 -80.28158 14 ft 4 kts 212°
2026-05-04 22:55 25.79891 -80.28138 16 ft 4 kts 245°
2026-05-04 22:56 25.79897 -80.28115 13 ft 1 kts 267°
2026-05-04 22:58 25.79907 -80.28135 14 ft 4 kts 322°
2026-05-04 22:59 25.79935 -80.28143 13 ft 5 kts 351°
2026-05-04 22:59 25.79969 -80.28146 13 ft 5 kts 356°
2026-05-04 22:59 25.80004 -80.28150 13 ft 5 kts 350°
2026-05-04 22:59 25.80033 -80.28171 13 ft 5 kts 308°
2026-05-04 23:00 25.80042 -80.28210 14 ft 7 kts 270°
2026-05-04 23:00 25.80037 -80.28277 14 ft 9 kts 267°
2026-05-04 23:00 25.80035 -80.28351 14 ft 10 kts 269°
2026-05-04 23:00 25.80033 -80.28427 14 ft 10 kts 268°
2026-05-04 23:01 25.80029 -80.28502 15 ft 10 kts 266°
2026-05-04 23:01 25.80026 -80.28576 17 ft 9 kts 267°
2026-05-04 23:01 25.80023 -80.28662 14 ft 12 kts 268°
2026-05-04 23:01 25.80020 -80.28750 22 ft 12 kts 267°
2026-05-04 23:02 25.80014 -80.28849 21 ft 14 kts 266°
2026-05-04 23:02 25.80010 -80.28956 19 ft 14 kts 268°
2026-05-04 23:02 25.80004 -80.29068 20 ft 15 kts 268°
2026-05-04 23:02 25.80000 -80.29180 21 ft 15 kts 267°
2026-05-04 23:03 25.79995 -80.29294 19 ft 14 kts 267°
2026-05-04 23:03 25.79991 -80.29408 15 ft 16 kts 268°
2026-05-04 23:03 25.79984 -80.29544 12 ft 18 kts 268°
2026-05-04 23:03 25.79980 -80.29668 13 ft 13 kts 268°
2026-05-04 23:04 25.79979 -80.29724 13 ft 2 kts 268°
2026-05-04 23:04 25.79982 -80.29740 13 ft 3 kts 290°
2026-05-04 23:04 25.80014 -80.29760 13 ft 7 kts 354°
2026-05-04 23:04 25.80041 -80.29763 13 ft 0 kts 355°
2026-05-04 23:05 25.80045 -80.29763 13 ft 4 kts 355°
2026-05-04 23:05 25.80080 -80.29753 13 ft 6 kts 44°
2026-05-04 23:05 25.80088 -80.29709 13 ft 7 kts 86°
2026-05-04 23:05 25.80100 -80.29437 15 ft 70 kts 87°
2026-05-04 23:06 25.80132 -80.28659 18 ft 131 kts 87°
2026-05-04 23:06 25.80180 -80.27472 155 ft 169 kts 86°
2026-05-04 23:06 25.80236 -80.26101 735 ft 185 kts 85°
2026-05-04 23:06 25.80298 -80.24645 1398 ft 193 kts 86°
2026-05-04 23:07 25.80364 -80.23113 1807 ft 208 kts 84°
2026-05-04 23:07 25.80465 -80.21446 2160 ft 223 kts 83°
2026-05-04 23:07 25.80614 -80.19694 2621 ft 233 kts 83°
2026-05-04 23:07 25.80922 -80.17963 3385 ft 224 kts 67°
2026-05-04 23:08 25.81818 -80.16536 3854 ft 234 kts 39°
2026-05-04 23:08 25.83323 -80.15821 4283 ft 244 kts
2026-05-04 23:08 25.85046 -80.15831 4832 ft 253 kts 358°
2026-05-04 23:08 25.86887 -80.15910 5070 ft 280 kts 357°
2026-05-04 23:09 25.88891 -80.15971 5579 ft 292 kts 359°
2026-05-04 23:09 25.90872 -80.16070 6631 ft 278 kts 343°
2026-05-04 23:09 25.92696 -80.16751 7488 ft 277 kts 337°
2026-05-04 23:09 25.94533 -80.17467 8183 ft 283 kts 338°
2026-05-04 23:10 25.96421 -80.18160 8898 ft 288 kts 338°
2026-05-04 23:10 25.98225 -80.19092 9571 ft 285 kts 316°
2026-05-04 23:10 25.99473 -80.20746 10286 ft 279 kts 295°
2026-05-04 23:10 26.00300 -80.22763 10538 ft 297 kts 289°
2026-05-04 23:11 26.01082 -80.24977 10702 ft 318 kts 288°
2026-05-04 23:11 26.01897 -80.27340 10861 ft 337 kts 288°
2026-05-04 23:11 26.02766 -80.29836 11026 ft 354 kts 289°
2026-05-04 23:11 26.03679 -80.32423 11378 ft 363 kts 289°
2026-05-04 23:12 26.04603 -80.35010 11887 ft 367 kts 289°
2026-05-04 23:12 26.05550 -80.37643 12523 ft 367 kts 289°
2026-05-04 23:12 26.06500 -80.40278 13145 ft 368 kts 289°
2026-05-04 23:12 26.07456 -80.42928 13736 ft 370 kts 289°
2026-05-04 23:13 26.08418 -80.45596 14255 ft 373 kts 289°
2026-05-04 23:13 26.09385 -80.48277 14789 ft 374 kts 289°
2026-05-04 23:13 26.10368 -80.51006 15350 ft 375 kts 289°
2026-05-04 23:13 26.11325 -80.53670 15887 ft 377 kts 289°
2026-05-04 23:14 26.12347 -80.56361 16433 ft 380 kts 295°
2026-05-04 23:14 26.13991 -80.58696 16942 ft 389 kts 313°
2026-05-04 23:14 26.16070 -80.60447 17460 ft 398 kts 326°
2026-05-04 23:15 26.18422 -80.61687 17933 ft 405 kts 331°
2026-05-04 23:15 26.21025 -80.62908 18418 ft 408 kts 332°
2026-05-04 23:15 26.23659 -80.64116 18813 ft 410 kts 332°
2026-05-04 23:15 26.26295 -80.65335 19220 ft 412 kts 332°
2026-05-04 23:16 26.28951 -80.66583 19560 ft 415 kts 331°
2026-05-04 23:16 26.31614 -80.67849 19950 ft 417 kts 331°
2026-05-04 23:16 26.34285 -80.69127 20368 ft 418 kts 331°
2026-05-04 23:16 26.36962 -80.70413 20763 ft 420 kts 331°
2026-05-04 23:17 26.39621 -80.71763 21125 ft 418 kts 325°
2026-05-04 23:17 26.41872 -80.73743 21461 ft 410 kts 309°
2026-05-04 23:17 26.43775 -80.76117 21844 ft 411 kts 307°
2026-05-04 23:17 26.45682 -80.78498 22187 ft 413 kts 308°
2026-05-04 23:18 26.47625 -80.80881 22520 ft 416 kts 308°
2026-05-04 23:18 26.49584 -80.83256 22868 ft 417 kts 308°
2026-05-04 23:18 26.51598 -80.85604 23190 ft 421 kts 312°
2026-05-04 23:18 26.53815 -80.87768 23513 ft 425 kts 316°
2026-05-04 23:19 26.56134 -80.89842 23780 ft 428 kts 317°
2026-05-04 23:19 26.58484 -80.91891 24113 ft 428 kts 317°
2026-05-04 23:19 26.60628 -80.93764 24437 ft 427 kts 317°
2026-05-04 23:20 26.62963 -80.95829 24712 ft 429 kts 316°
2026-05-04 23:20 26.65295 -80.97918 24963 ft 430 kts 316°
2026-05-04 23:20 26.67626 -81.00024 25218 ft 432 kts 316°
2026-05-04 23:20 26.69957 -81.02143 25482 ft 433 kts 316°
2026-05-04 23:21 26.72295 -81.04274 25746 ft 434 kts 316°
2026-05-04 23:21 26.74639 -81.06413 25993 ft 435 kts 316°
2026-05-04 23:21 26.76988 -81.08557 26245 ft 436 kts 316°
2026-05-04 23:21 26.79302 -81.10669 26420 ft 433 kts 315°
2026-05-04 23:22 26.81670 -81.12831 26414 ft 433 kts 315°
2026-05-04 23:22 26.83972 -81.14934 26422 ft 433 kts 315°
2026-05-04 23:22 26.86305 -81.17066 26426 ft 433 kts 315°
2026-05-04 23:22 26.88641 -81.19203 26427 ft 433 kts 315°
2026-05-04 23:23 26.90974 -81.21337 26466 ft 433 kts 316°
2026-05-04 23:23 26.93306 -81.23472 26483 ft 433 kts 316°
2026-05-04 23:23 26.95643 -81.25613 26481 ft 434 kts 316°
2026-05-04 23:23 26.97977 -81.27750 26492 ft 434 kts 316°
2026-05-04 23:24 27.00314 -81.29892 26531 ft 433 kts 316°
2026-05-04 23:24 27.02644 -81.32030 26522 ft 433 kts 316°
2026-05-04 23:24 27.04713 -81.33897 26523 ft 434 kts 319°
2026-05-04 23:24 27.04770 -81.33945 26523 ft 434 kts 319°
2026-05-04 23:25 27.07339 -81.35762 26523 ft 439 kts 325°
2026-05-04 23:25 27.10017 -81.37416 26533 ft 440 kts 326°
2026-05-04 23:25 27.12714 -81.39045 26536 ft 440 kts 326°
2026-05-04 23:25 27.15400 -81.40684 26536 ft 440 kts 326°
2026-05-04 23:26 27.18076 -81.42345 26541 ft 439 kts 325°
2026-05-04 23:26 27.20744 -81.44026 26544 ft 439 kts 325°
2026-05-04 23:26 27.23399 -81.45712 26579 ft 439 kts 325°
2026-05-04 23:26 27.26060 -81.47407 26581 ft 439 kts 325°
2026-05-04 23:27 27.28718 -81.49100 26582 ft 440 kts 325°
2026-05-04 23:27 27.31381 -81.50797 26587 ft 440 kts 325°
2026-05-04 23:27 27.34048 -81.52482 26591 ft 441 kts 327°
2026-05-04 23:27 27.36833 -81.53964 26593 ft 444 kts 331°
2026-05-04 23:28 27.39705 -81.55283 26601 ft 446 kts 333°
2026-05-04 23:28 27.42603 -81.56538 26608 ft 446 kts 333°
2026-05-04 23:28 27.45502 -81.57787 26610 ft 446 kts 333°
2026-05-04 23:28 27.48397 -81.59051 26617 ft 446 kts 333°
2026-05-04 23:29 27.51282 -81.60334 26622 ft 446 kts 332°
2026-05-04 23:29 27.54165 -81.61634 26625 ft 446 kts 332°
2026-05-04 23:29 27.56593 -81.62738 26628 ft 446 kts 332°
2026-05-04 23:29 27.56813 -81.62838 26628 ft 446 kts 332°
2026-05-04 23:30 27.59690 -81.64154 26636 ft 446 kts 332°
2026-05-04 23:30 27.62528 -81.65454 26640 ft 446 kts 332°
2026-05-04 23:30 27.65393 -81.66768 26738 ft 443 kts 332°
2026-05-04 23:30 27.68248 -81.68077 26742 ft 443 kts 332°
2026-05-04 23:31 27.71101 -81.69386 26755 ft 443 kts 332°
2026-05-04 23:31 27.73967 -81.70703 26845 ft 447 kts 332°
2026-05-04 23:31 27.76844 -81.72025 27231 ft 445 kts 332°
2026-05-04 23:31 27.79691 -81.73330 27781 ft 439 kts 332°
2026-05-04 23:32 27.82504 -81.74619 28329 ft 435 kts 332°
2026-05-04 23:32 27.85314 -81.75912 28583 ft 437 kts 332°
2026-05-04 23:32 27.88141 -81.77214 28824 ft 440 kts 332°
2026-05-04 23:32 27.90979 -81.78523 29106 ft 441 kts 332°
2026-05-04 23:33 27.93814 -81.79828 29492 ft 439 kts 332°
2026-05-04 23:33 27.96636 -81.81126 30002 ft 436 kts 332°
2026-05-04 23:33 27.99433 -81.82414 30428 ft 433 kts 332°
2026-05-04 23:33 28.02223 -81.83700 30756 ft 432 kts 332°
2026-05-04 23:34 28.05009 -81.84986 31033 ft 433 kts 332°
2026-05-04 23:34 28.07799 -81.86275 31333 ft 433 kts 332°
2026-05-04 23:34 28.10064 -81.87320 31609 ft 432 kts 332°
2026-05-04 23:34 28.10270 -81.87415 31634 ft 431 kts 332°
2026-05-04 23:35 28.13047 -81.88698 31986 ft 430 kts 332°
2026-05-04 23:35 28.15827 -81.89986 32013 ft 434 kts 332°
2026-05-04 23:35 28.21020 -81.93252 32051 ft 423 kts 320°
2026-05-04 23:36 28.25771 -81.97156 32045 ft 421 kts 319°
2026-05-04 23:36 28.30531 -82.01021 32045 ft 420 kts 320°
2026-05-04 23:37 28.35312 -82.04825 32044 ft 420 kts 320°
2026-05-04 23:37 28.40102 -82.08618 32041 ft 420 kts 320°
2026-05-04 23:38 28.44892 -82.12415 32058 ft 420 kts 320°
2026-05-04 23:38 28.49685 -82.16226 32034 ft 421 kts 320°
2026-05-04 23:39 28.54487 -82.20054 32027 ft 421 kts 320°
2026-05-04 23:39 28.56734 -82.21847 32024 ft 422 kts 320°
2026-05-04 23:40 28.60729 -82.25035 32033 ft 422 kts 320°
2026-05-04 23:40 28.65541 -82.28877 32037 ft 423 kts 320°
2026-05-04 23:41 28.70364 -82.32731 32034 ft 423 kts 320°
2026-05-04 23:41 28.75186 -82.36587 32071 ft 424 kts 320°
2026-05-04 23:42 28.80010 -82.40451 32047 ft 424 kts 320°
2026-05-04 23:42 28.84826 -82.44312 32029 ft 422 kts 320°
2026-05-04 23:43 28.89622 -82.48160 32028 ft 421 kts 320°
2026-05-04 23:43 28.94400 -82.52000 32037 ft 419 kts 320°
2026-05-04 23:44 28.99128 -82.55803 32038 ft 418 kts 320°
2026-05-04 23:44 29.01687 -82.57864 32033 ft 417 kts 320°
2026-05-04 23:45 29.06075 -82.61400 32055 ft 416 kts 320°
2026-05-04 23:45 29.10806 -82.65217 32041 ft 416 kts 320°
2026-05-04 23:46 29.15530 -82.69033 32030 ft 415 kts 320°
2026-05-04 23:46 29.20247 -82.72847 32030 ft 415 kts 320°
2026-05-04 23:47 29.24965 -82.76667 32031 ft 415 kts 320°
2026-05-04 23:47 29.29680 -82.80487 32035 ft 415 kts 320°
2026-05-04 23:48 29.34388 -82.84307 32031 ft 414 kts 320°
2026-05-04 23:48 29.39081 -82.88118 32041 ft 413 kts 319°
2026-05-04 23:49 29.43760 -82.91920 32031 ft 412 kts 319°
2026-05-04 23:49 29.46174 -82.93884 32031 ft 411 kts 319°
2026-05-04 23:50 29.50649 -82.97503 32032 ft 411 kts 322°
2026-05-04 23:50 29.55845 -83.00395 32042 ft 418 kts 331°
2026-05-04 23:51 29.61226 -83.02906 32039 ft 417 kts 331°
2026-05-04 23:51 29.66595 -83.05437 32057 ft 417 kts 330°
2026-05-04 23:52 29.71962 -83.07986 32037 ft 417 kts 330°
2026-05-04 23:52 29.77290 -83.10524 32037 ft 417 kts 330°
2026-05-04 23:53 29.82657 -83.13083 32039 ft 418 kts 330°
2026-05-04 23:53 29.88030 -83.15647 32034 ft 418 kts 330°
2026-05-04 23:54 29.93396 -83.18211 32036 ft 417 kts 330°
2026-05-04 23:54 29.96102 -83.19505 32060 ft 418 kts 330°
2026-05-04 23:55 30.01131 -83.21912 32047 ft 417 kts 330°
2026-05-04 23:56 30.09149 -83.25753 32043 ft 415 kts 330°
2026-05-04 23:56 30.14471 -83.28307 32041 ft 414 kts 330°
2026-05-04 23:57 30.19784 -83.30858 32041 ft 413 kts 330°
2026-05-04 23:57 30.25084 -83.33410 32058 ft 413 kts 330°
2026-05-04 23:58 30.30379 -83.35974 32050 ft 412 kts 330°
2026-05-04 23:58 30.35668 -83.38536 32041 ft 412 kts 330°
2026-05-04 23:59 30.40955 -83.41097 32043 ft 412 kts 330°
2026-05-04 23:59 30.46156 -83.43619 32049 ft 412 kts 330°
2026-05-05 00:00 30.48781 -83.44892 32046 ft 412 kts 330°
2026-05-05 00:00 30.54067 -83.47458 32043 ft 412 kts 330°
2026-05-05 00:01 30.59357 -83.50030 32048 ft 412 kts 330°
2026-05-05 00:01 30.64652 -83.52607 32044 ft 413 kts 330°
2026-05-05 00:02 30.69946 -83.55186 32047 ft 412 kts 330°
2026-05-05 00:02 30.75227 -83.57762 32045 ft 411 kts 330°
2026-05-05 00:03 30.80500 -83.60337 32102 ft 411 kts 330°
2026-05-05 00:03 30.85769 -83.62914 32059 ft 411 kts 330°
2026-05-05 00:04 30.91031 -83.65490 32048 ft 410 kts 330°
2026-05-05 00:04 30.96095 -83.67971 32044 ft 409 kts 330°
2026-05-05 00:05 30.98773 -83.69285 32048 ft 409 kts 329°
2026-05-05 00:05 31.04014 -83.71858 32047 ft 409 kts 329°
2026-05-05 00:06 31.09255 -83.74435 32083 ft 408 kts 329°
2026-05-05 00:06 31.14498 -83.77016 32056 ft 409 kts 330°
2026-05-05 00:07 31.19751 -83.79604 32049 ft 410 kts 330°
2026-05-05 00:07 31.25011 -83.82199 32050 ft 411 kts 330°
2026-05-05 00:08 31.30281 -83.84801 32043 ft 411 kts 330°
2026-05-05 00:08 31.35553 -83.87408 32049 ft 412 kts 330°
2026-05-05 00:09 31.40839 -83.90024 32048 ft 413 kts 330°
2026-05-05 00:09 31.45856 -83.92507 32056 ft 412 kts 330°
2026-05-05 00:10 31.48617 -83.93876 32060 ft 410 kts 330°
2026-05-05 00:10 31.53996 -83.96159 32040 ft 418 kts 340°
2026-05-05 00:11 31.59718 -83.97411 32051 ft 418 kts 341°
2026-05-05 00:11 31.65427 -83.98649 32048 ft 417 kts 341°
2026-05-05 00:12 31.71132 -83.99906 32064 ft 418 kts 341°
2026-05-05 00:12 31.76821 -84.01172 32051 ft 419 kts 341°
2026-05-05 00:13 31.82565 -84.02453 32051 ft 421 kts 341°
2026-05-05 00:13 31.88329 -84.03741 32049 ft 422 kts 341°
2026-05-05 00:14 31.94107 -84.05033 32082 ft 424 kts 342°
2026-05-05 00:14 31.99524 -84.06246 32045 ft 426 kts 342°
2026-05-05 00:15 32.02500 -84.06913 32032 ft 427 kts 342°
2026-05-05 00:15 32.08349 -84.08224 32027 ft 429 kts 342°
2026-05-05 00:16 32.14224 -84.09543 32031 ft 430 kts 342°
2026-05-05 00:16 32.20102 -84.10864 32028 ft 430 kts 342°
2026-05-05 00:17 32.26000 -84.12192 32042 ft 432 kts 342°
2026-05-05 00:17 32.31909 -84.13524 32030 ft 433 kts 342°
2026-05-05 00:18 32.37829 -84.14860 32035 ft 433 kts 342°
2026-05-05 00:18 32.43753 -84.16199 32028 ft 433 kts 342°
2026-05-05 00:19 32.49675 -84.17538 32059 ft 434 kts 343°
2026-05-05 00:19 32.55084 -84.18764 32040 ft 435 kts 343°
2026-05-05 00:20 32.58286 -84.19491 32020 ft 435 kts 343°
2026-05-05 00:20 32.64237 -84.20842 32041 ft 436 kts 343°
2026-05-05 00:21 32.70191 -84.22196 32037 ft 436 kts 343°
2026-05-05 00:21 32.76153 -84.23554 32086 ft 436 kts 343°
2026-05-05 00:22 32.82132 -84.24917 32068 ft 438 kts 343°
2026-05-05 00:22 32.88087 -84.26277 32072 ft 440 kts 343°
2026-05-05 00:23 32.94103 -84.27653 32069 ft 441 kts 343°
2026-05-05 00:23 33.00143 -84.29035 32061 ft 442 kts 343°
2026-05-05 00:24 33.06138 -84.30406 32041 ft 438 kts 343°
2026-05-05 00:24 33.11531 -84.31646 32048 ft 440 kts 343°
2026-05-05 00:25 33.14813 -84.32402 32056 ft 442 kts 343°
2026-05-05 00:25 33.20860 -84.33793 32055 ft 444 kts 343°
2026-05-05 00:26 33.26925 -84.35189 32061 ft 444 kts 343°
2026-05-05 00:26 33.32995 -84.36588 32063 ft 444 kts 343°
2026-05-05 00:27 33.39053 -84.37986 32033 ft 443 kts 343°
2026-05-05 00:27 33.45103 -84.39384 32030 ft 442 kts 343°
2026-05-05 00:28 33.51134 -84.40779 32036 ft 441 kts 343°
2026-05-05 00:28 33.56135 -84.41936 32058 ft 440 kts 343°
2026-05-05 00:29 33.62143 -84.43331 32045 ft 440 kts 344°
2026-05-05 00:29 33.68173 -84.44686 32041 ft 441 kts 345°
2026-05-05 00:30 33.70833 -84.45265 32040 ft 442 kts 345°
2026-05-05 00:30 33.76893 -84.46581 32030 ft 442 kts 345°
2026-05-05 00:31 33.82954 -84.47905 32031 ft 443 kts 345°
2026-05-05 00:31 33.89034 -84.49238 32016 ft 445 kts 345°
2026-05-05 00:32 33.95130 -84.50576 32010 ft 446 kts 345°
2026-05-05 00:32 34.01241 -84.51919 32039 ft 447 kts 345°
2026-05-05 00:33 34.07347 -84.53353 32041 ft 447 kts 343°
2026-05-05 00:33 34.13420 -84.54970 32039 ft 448 kts 343°
2026-05-05 00:34 34.19509 -84.56590 32027 ft 448 kts 343°
2026-05-05 00:34 34.25608 -84.58185 32039 ft 449 kts 343°
2026-05-05 00:35 34.28308 -84.58888 32042 ft 449 kts 343°
2026-05-05 00:35 34.34414 -84.60476 32028 ft 449 kts 343°
2026-05-05 00:36 34.40521 -84.62066 32036 ft 449 kts 343°
2026-05-05 00:36 34.46587 -84.63649 32004 ft 449 kts 343°
2026-05-05 00:37 34.52695 -84.65243 31993 ft 449 kts 343°
2026-05-05 00:37 34.58796 -84.66839 32002 ft 448 kts 343°
2026-05-05 00:38 34.64888 -84.68370 32011 ft 446 kts 344°
2026-05-05 00:38 34.70975 -84.69871 32006 ft 446 kts 344°
2026-05-05 00:39 34.77060 -84.71377 32010 ft 446 kts 344°
2026-05-05 00:39 34.83146 -84.72890 32002 ft 447 kts 344°
2026-05-05 00:40 34.85928 -84.73583 32006 ft 446 kts 344°
2026-05-05 00:40 34.92011 -84.75101 32005 ft 447 kts 344°
2026-05-05 00:41 34.98099 -84.76622 31996 ft 446 kts 344°
2026-05-05 00:41 35.04185 -84.78144 31987 ft 446 kts 344°
2026-05-05 00:42 35.10266 -84.79668 31982 ft 446 kts 344°
2026-05-05 00:42 35.16347 -84.81194 31990 ft 446 kts 344°
2026-05-05 00:43 35.22428 -84.82723 31982 ft 446 kts 343°
2026-05-05 00:43 35.28515 -84.84254 31980 ft 446 kts 343°
2026-05-05 00:44 35.34598 -84.85787 31975 ft 446 kts 344°
2026-05-05 00:44 35.40605 -84.87303 32002 ft 446 kts 343°
2026-05-05 00:45 35.43028 -84.87915 31986 ft 447 kts 343°
2026-05-05 00:45 35.49072 -84.89442 31990 ft 447 kts 343°
2026-05-05 00:46 35.55161 -84.90982 31977 ft 446 kts 343°
2026-05-05 00:46 35.61243 -84.92525 31973 ft 446 kts 343°
2026-05-05 00:47 35.67321 -84.94072 31987 ft 446 kts 343°
2026-05-05 00:47 35.73401 -84.95619 31971 ft 446 kts 343°
2026-05-05 00:48 35.79471 -84.97163 31974 ft 445 kts 343°
2026-05-05 00:48 35.85531 -84.98704 31973 ft 445 kts 343°
2026-05-05 00:49 35.91596 -85.00249 32003 ft 444 kts 343°
2026-05-05 00:49 35.97482 -85.01752 32001 ft 444 kts 343°
2026-05-05 00:50 36.00005 -85.02397 31997 ft 444 kts 343°
2026-05-05 00:50 36.06059 -85.03945 31997 ft 444 kts 343°
2026-05-05 00:51 36.12073 -85.05487 31990 ft 444 kts 343°
2026-05-05 00:51 36.18114 -85.07037 31987 ft 444 kts 343°
2026-05-05 00:52 36.24161 -85.08590 31972 ft 443 kts 343°
2026-05-05 00:52 36.30201 -85.10145 31962 ft 443 kts 343°
2026-05-05 00:53 36.36236 -85.11700 31960 ft 443 kts 343°
2026-05-05 00:53 36.42273 -85.13257 31962 ft 443 kts 343°
2026-05-05 00:54 36.48303 -85.14816 31950 ft 443 kts 343°
2026-05-05 00:54 36.54080 -85.16309 31943 ft 442 kts 343°
2026-05-05 00:55 36.57003 -85.17065 31947 ft 442 kts 343°
2026-05-05 00:55 36.63028 -85.18630 31941 ft 442 kts 343°
2026-05-05 00:56 36.69051 -85.20205 31954 ft 442 kts 343°
2026-05-05 00:56 36.75074 -85.21781 31932 ft 442 kts 343°
2026-05-05 00:57 36.81090 -85.23354 31931 ft 442 kts 343°
2026-05-05 00:57 36.87101 -85.24926 31924 ft 441 kts 343°
2026-05-05 00:58 36.93113 -85.26501 31935 ft 441 kts 343°
2026-05-05 00:58 36.99075 -85.28065 31921 ft 441 kts 342°
2026-05-05 00:59 37.05075 -85.29642 31916 ft 440 kts 343°
2026-05-05 00:59 37.10726 -85.31130 31911 ft 440 kts 343°
2026-05-05 01:00 37.13918 -85.31971 31914 ft 440 kts 343°
2026-05-05 01:00 37.19917 -85.33554 31916 ft 441 kts 343°
2026-05-05 01:01 37.25922 -85.35141 31898 ft 441 kts 343°
2026-05-05 01:01 37.31928 -85.36731 31895 ft 441 kts 343°
2026-05-05 01:02 37.37933 -85.38323 31890 ft 441 kts 343°
2026-05-05 01:02 37.43942 -85.39919 31888 ft 441 kts 343°
2026-05-05 01:03 37.49951 -85.41517 31875 ft 441 kts 343°
2026-05-05 01:03 37.55960 -85.43116 31849 ft 441 kts 342°
2026-05-05 01:04 37.61947 -85.44713 31840 ft 439 kts 342°
2026-05-05 01:04 37.65736 -85.45729 31810 ft 439 kts 342°
2026-05-05 01:05 37.71723 -85.47337 31806 ft 438 kts 342°
2026-05-05 01:05 37.77688 -85.48930 31814 ft 438 kts 342°
2026-05-05 01:06 37.83646 -85.50527 31819 ft 438 kts 342°
2026-05-05 01:06 37.89611 -85.52130 31825 ft 439 kts 343°
2026-05-05 01:07 37.95548 -85.53728 31820 ft 439 kts 343°
2026-05-05 01:07 38.01537 -85.55340 31818 ft 440 kts 343°
2026-05-05 01:08 38.07531 -85.56957 31811 ft 441 kts 343°
2026-05-05 01:08 38.13558 -85.58447 31818 ft 443 kts 346°
2026-05-05 01:09 38.19660 -85.59610 31804 ft 444 kts 347°
2026-05-05 01:09 38.22314 -85.60093 31806 ft 444 kts 347°
2026-05-05 01:10 38.28420 -85.61221 31800 ft 443 kts 346°
2026-05-05 01:10 38.34517 -85.62378 31779 ft 443 kts 346°
2026-05-05 01:11 38.40606 -85.63552 31772 ft 442 kts 346°
2026-05-05 01:11 38.46689 -85.64729 31783 ft 442 kts 346°
2026-05-05 01:12 38.52766 -85.65908 31788 ft 442 kts 346°
2026-05-05 01:12 38.58845 -85.67088 31814 ft 442 kts 346°
2026-05-05 01:13 38.64925 -85.68270 31807 ft 442 kts 346°
2026-05-05 01:13 38.71015 -85.69456 31815 ft 443 kts 346°
2026-05-05 01:14 38.77108 -85.70645 31809 ft 443 kts 346°
2026-05-05 01:14 38.79818 -85.71174 31811 ft 443 kts 346°
2026-05-05 01:15 38.85918 -85.72367 31816 ft 444 kts 347°
2026-05-05 01:15 38.92029 -85.73564 31803 ft 444 kts 347°
2026-05-05 01:16 38.98136 -85.74762 31784 ft 445 kts 347°
2026-05-05 01:16 39.03264 -85.75770 31779 ft 445 kts 347°
2026-05-05 01:17 39.09412 -85.76980 31776 ft 445 kts 347°
2026-05-05 01:17 39.15514 -85.78184 31769 ft 446 kts 347°
2026-05-05 01:18 39.21645 -85.79395 31763 ft 446 kts 347°
2026-05-05 01:18 39.27772 -85.80607 31767 ft 446 kts 347°
2026-05-05 01:19 39.33872 -85.81816 31752 ft 446 kts 347°
2026-05-05 01:19 39.37173 -85.82472 31749 ft 446 kts 347°
2026-05-05 01:20 39.42272 -85.83485 31752 ft 446 kts 347°
2026-05-05 01:20 39.48364 -85.84697 31743 ft 446 kts 347°
2026-05-05 01:21 39.54501 -85.85922 31750 ft 446 kts 346°
2026-05-05 01:21 39.60640 -85.87148 31739 ft 446 kts 346°
2026-05-05 01:22 39.66778 -85.88376 31734 ft 446 kts 346°
2026-05-05 01:22 39.72910 -85.89605 31735 ft 446 kts 346°
2026-05-05 01:23 39.79045 -85.90840 31739 ft 446 kts 346°
2026-05-05 01:23 39.85179 -85.92083 31732 ft 446 kts 346°
2026-05-05 01:24 39.91319 -85.93315 31731 ft 446 kts 346°
2026-05-05 01:24 39.94499 -85.93954 31732 ft 446 kts 346°
2026-05-05 01:25 39.99928 -85.95049 31740 ft 447 kts 346°
2026-05-05 01:25 40.06075 -85.96293 31730 ft 448 kts 346°
2026-05-05 01:26 40.12233 -85.97542 31727 ft 448 kts 346°
2026-05-05 01:26 40.18394 -85.98793 31728 ft 448 kts 346°
2026-05-05 01:27 40.24587 -86.00055 31150 ft 455 kts 346°
2026-05-05 01:27 40.27699 -86.00689 30483 ft 452 kts 346°
2026-05-05 01:27 40.30809 -86.01322 29727 ft 452 kts 346°
2026-05-05 01:28 40.33915 -86.01955 28816 ft 452 kts 346°
2026-05-05 01:28 40.37007 -86.02585 28210 ft 446 kts 346°
2026-05-05 01:28 40.40057 -86.03205 27579 ft 441 kts 346°
2026-05-05 01:28 40.43076 -86.03821 27021 ft 436 kts 346°
2026-05-05 01:29 40.46056 -86.04430 26430 ft 431 kts 346°
2026-05-05 01:29 40.48969 -86.05027 25867 ft 427 kts 346°
2026-05-05 01:29 40.51903 -86.05630 25301 ft 423 kts 347°
2026-05-05 01:30 40.54530 -86.05988 24766 ft 424 kts 354°
2026-05-05 01:30 40.57477 -86.05952 24211 ft 423 kts 358°
2026-05-05 01:30 40.60409 -86.05768 23638 ft 421 kts 358°
2026-05-05 01:30 40.63318 -86.05598 23148 ft 415 kts 357°
2026-05-05 01:31 40.66161 -86.05490 22745 ft 406 kts 356°
2026-05-05 01:31 40.68969 -86.05422 22228 ft 401 kts 356°
2026-05-05 01:31 40.71755 -86.05367 21669 ft 400 kts 356°
2026-05-05 01:31 40.74532 -86.05311 21123 ft 397 kts 356°
2026-05-05 01:32 40.77304 -86.05252 20586 ft 400 kts 356°
2026-05-05 01:32 40.80080 -86.05188 20046 ft 398 kts 356°
2026-05-05 01:32 40.82843 -86.05122 19512 ft 396 kts 356°
2026-05-05 01:32 40.85595 -86.05057 18991 ft 395 kts 356°
2026-05-05 01:33 40.88338 -86.04993 18455 ft 393 kts 356°
2026-05-05 01:33 40.91093 -86.04986 17921 ft 387 kts 350°
2026-05-05 01:33 40.93591 -86.05876 17354 ft 372 kts 328°
2026-05-05 01:33 40.95647 -86.07826 16840 ft 359 kts 311°
2026-05-05 01:34 40.97194 -86.10355 16303 ft 350 kts 297°
2026-05-05 01:34 40.98163 -86.13258 15841 ft 342 kts 286°
2026-05-05 01:34 40.98835 -86.16136 15352 ft 339 kts 284°
2026-05-05 01:35 40.99459 -86.19002 14888 ft 336 kts 284°
2026-05-05 01:35 41.00102 -86.21969 14406 ft 334 kts 284°
2026-05-05 01:35 41.00739 -86.24860 13937 ft 331 kts 284°
2026-05-05 01:35 41.01390 -86.27769 13568 ft 325 kts 284°
2026-05-05 01:36 41.02029 -86.30587 13036 ft 314 kts 284°
2026-05-05 01:36 41.02648 -86.33307 12604 ft 303 kts 284°
2026-05-05 01:36 41.03247 -86.35932 12157 ft 293 kts 284°
2026-05-05 01:36 41.03826 -86.38483 11715 ft 285 kts 284°
2026-05-05 01:37 41.04389 -86.40967 11287 ft 278 kts 284°
2026-05-05 01:37 41.04947 -86.43363 11163 ft 270 kts 287°
2026-05-05 01:37 41.05748 -86.45609 11027 ft 270 kts 294°
2026-05-05 01:37 41.06662 -86.47774 10882 ft 268 kts 295°
2026-05-05 01:38 41.07577 -86.49912 10747 ft 266 kts 295°
2026-05-05 01:38 41.08476 -86.52040 10619 ft 264 kts 296°
2026-05-05 01:38 41.09359 -86.54166 10490 ft 263 kts 295°
2026-05-05 01:38 41.10231 -86.56294 10357 ft 262 kts 295°
2026-05-05 01:39 41.11100 -86.58423 10220 ft 263 kts 296°
2026-05-05 01:39 41.11968 -86.60555 10092 ft 263 kts 296°
2026-05-05 01:39 41.13020 -86.62552 9940 ft 269 kts 312°
2026-05-05 01:39 41.14428 -86.64189 9835 ft 270 kts 315°
2026-05-05 01:40 41.15861 -86.65807 9698 ft 271 kts 315°
2026-05-05 01:40 41.17301 -86.67433 9557 ft 272 kts 315°
2026-05-05 01:40 41.18742 -86.69065 9414 ft 273 kts 315°
2026-05-05 01:40 41.20166 -86.70684 9277 ft 273 kts 315°
2026-05-05 01:41 41.21608 -86.72327 9132 ft 273 kts 315°
2026-05-05 01:41 41.23039 -86.73960 8993 ft 268 kts 315°
2026-05-05 01:41 41.24432 -86.75550 8855 ft 260 kts 315°
2026-05-05 01:41 41.25783 -86.77096 8737 ft 254 kts 315°
2026-05-05 01:42 41.27117 -86.78625 8627 ft 252 kts 315°
2026-05-05 01:42 41.28444 -86.80149 8512 ft 252 kts 315°
2026-05-05 01:42 41.29773 -86.81676 8393 ft 252 kts 315°
2026-05-05 01:42 41.31097 -86.83198 8288 ft 252 kts 314°
2026-05-05 01:43 41.32423 -86.84723 8164 ft 252 kts 314°
2026-05-05 01:43 41.33747 -86.86247 8053 ft 252 kts 314°
2026-05-05 01:43 41.35078 -86.87777 7948 ft 253 kts 314°
2026-05-05 01:43 41.36410 -86.89311 7824 ft 253 kts 315°
2026-05-05 01:44 41.37738 -86.90843 7707 ft 254 kts 314°
2026-05-05 01:44 41.39073 -86.92384 7581 ft 255 kts 314°
2026-05-05 01:44 41.40407 -86.93940 7461 ft 255 kts 313°
2026-05-05 01:44 41.41717 -86.95530 7332 ft 255 kts 314°
2026-05-05 01:45 41.43025 -86.97129 7219 ft 255 kts 314°
2026-05-05 01:45 41.44334 -86.98727 7096 ft 255 kts 314°
2026-05-05 01:45 41.45624 -87.00349 6973 ft 254 kts 308°
2026-05-05 01:45 41.46534 -87.02320 6865 ft 249 kts 293°
2026-05-05 01:46 41.47288 -87.04396 6737 ft 249 kts 294°
2026-05-05 01:46 41.48053 -87.06461 6619 ft 248 kts 294°
2026-05-05 01:46 41.48824 -87.08518 6507 ft 248 kts 294°
2026-05-05 01:46 41.49595 -87.10567 6387 ft 247 kts 294°
2026-05-05 01:47 41.50367 -87.12615 6271 ft 247 kts 294°
2026-05-05 01:47 41.51161 -87.14641 6156 ft 247 kts 300°
2026-05-05 01:47 41.52425 -87.16210 6034 ft 253 kts 323°
2026-05-05 01:47 41.54022 -87.17230 5931 ft 256 kts 334°
2026-05-05 01:48 41.55677 -87.18048 5787 ft 256 kts 335°
2026-05-05 01:48 41.57316 -87.18829 5624 ft 255 kts 335°
2026-05-05 01:48 41.58981 -87.19629 5500 ft 254 kts 335°
2026-05-05 01:48 41.60641 -87.20435 5359 ft 253 kts 334°
2026-05-05 01:49 41.62227 -87.21214 5248 ft 252 kts 334°
2026-05-05 01:49 41.63859 -87.22022 5121 ft 247 kts 334°
2026-05-05 01:49 41.65441 -87.22809 4992 ft 239 kts 334°
2026-05-05 01:49 41.66975 -87.23575 4878 ft 231 kts 333°
2026-05-05 01:50 41.68432 -87.24306 4781 ft 228 kts 333°
2026-05-05 01:50 41.69902 -87.25045 4677 ft 229 kts 333°
2026-05-05 01:50 41.71394 -87.25795 4570 ft 230 kts 333°
2026-05-05 01:50 41.72883 -87.26542 4451 ft 225 kts 333°
2026-05-05 01:51 41.74243 -87.27224 4333 ft 219 kts 332°
2026-05-05 01:51 41.75649 -87.27935 4242 ft 215 kts 330°
2026-05-05 01:51 41.77006 -87.28753 4152 ft 214 kts 327°
2026-05-05 01:51 41.78345 -87.29597 4046 ft 212 kts 327°
2026-05-05 01:52 41.79679 -87.30434 3944 ft 211 kts 327°
2026-05-05 01:52 41.81007 -87.31265 3849 ft 210 kts 327°
2026-05-05 01:52 41.82332 -87.32091 3745 ft 210 kts 327°
2026-05-05 01:52 41.83654 -87.32920 3625 ft 209 kts 323°
2026-05-05 01:53 41.84672 -87.34179 3522 ft 195 kts 289°
2026-05-05 01:53 41.85037 -87.35882 3471 ft 189 kts 272°
2026-05-05 01:53 41.85050 -87.37639 3387 ft 189 kts 266°
2026-05-05 01:53 41.85039 -87.39418 3285 ft 192 kts 266°
2026-05-05 01:54 41.85032 -87.41209 3173 ft 192 kts 266°
2026-05-05 01:54 41.85027 -87.42997 3077 ft 192 kts 266°
2026-05-05 01:54 41.85023 -87.44814 3048 ft 194 kts 266°
2026-05-05 01:54 41.85021 -87.46573 3024 ft 182 kts 266°
2026-05-05 01:55 41.85020 -87.48214 3009 ft 171 kts 266°
2026-05-05 01:55 41.85018 -87.49810 3011 ft 171 kts 266°
2026-05-05 01:55 41.85015 -87.51395 3009 ft 169 kts 266°
2026-05-05 01:55 41.85013 -87.52966 3001 ft 167 kts 265°
2026-05-05 01:56 41.85010 -87.54519 2998 ft 166 kts 265°
2026-05-05 01:56 41.84975 -87.56059 3005 ft 164 kts 263°
2026-05-05 01:56 41.84904 -87.57590 3006 ft 166 kts 262°
2026-05-05 01:56 41.84833 -87.59125 2996 ft 161 kts 263°
2026-05-05 01:57 41.84767 -87.60577 2978 ft 148 kts 263°
2026-05-05 01:57 41.84701 -87.61912 2789 ft 139 kts 262°
2026-05-05 01:57 41.84638 -87.63174 2654 ft 131 kts 261°
2026-05-05 01:57 41.84576 -87.64387 2476 ft 131 kts 259°
2026-05-05 01:58 41.84293 -87.65520 2323 ft 126 kts 242°
2026-05-05 01:58 41.83925 -87.66581 2126 ft 127 kts 241°
2026-05-05 01:58 41.83582 -87.67645 1973 ft 120 kts 243°
2026-05-05 01:58 41.83257 -87.68672 1770 ft 119 kts 238°
2026-05-05 01:59 41.82797 -87.69594 1617 ft 117 kts 228°
2026-05-05 01:59 41.82264 -87.70415 1455 ft 120 kts 223°
2026-05-05 01:59 41.81622 -87.71219 1396 ft 132 kts 218°
2026-05-05 01:59 41.80950 -87.72040 1201 ft 132 kts 224°
2026-05-05 02:00 41.80299 -87.72874 1028 ft 128 kts 223°
2026-05-05 02:00 41.79635 -87.73722 859 ft 135 kts 223°
2026-05-05 02:00 41.78966 -87.74592 669 ft 126 kts 222°
2026-05-05 02:00 41.78413 -87.75280 635 ft 77 kts 221°
2026-05-05 02:01 41.78208 -87.75520 629 ft 14 kts 197°
2026-05-05 02:01 41.78151 -87.75540 629 ft 2 kts 194°
2026-05-05 02:01 41.78126 -87.75547 628 ft 4 kts 191°
2026-05-05 02:01 41.78096 -87.75543 631 ft 5 kts 146°
2026-05-05 02:02 41.78099 -87.75500 638 ft 6 kts 55°
2026-05-05 02:02 41.78146 -87.75439 630 ft 10 kts 43°
2026-05-05 02:02 41.78195 -87.75380 638 ft 9 kts 41°
2026-05-05 02:02 41.78243 -87.75321 634 ft 10 kts 43°
2026-05-05 02:03 41.78280 -87.75274 630 ft 11 kts 44°
2026-05-05 02:03 41.78336 -87.75201 631 ft 11 kts 44°
2026-05-05 02:03 41.78397 -87.75122 629 ft 14 kts 43°
2026-05-05 02:03 41.78478 -87.75020 635 ft 18 kts 43°
2026-05-05 02:04 41.78570 -87.74903 629 ft 18 kts 45°
2026-05-05 02:04 41.78613 -87.74849 633 ft 2 kts 44°
2026-05-05 02:04 41.78628 -87.74815 628 ft 5 kts 90°
2026-05-05 02:04 41.78603 -87.74775 630 ft 6 kts 137°
2026-05-05 02:05 41.78561 -87.74719 628 ft 13 kts 134°
2026-05-05 02:05 41.78505 -87.74639 631 ft 8 kts 133°
2026-05-05 02:05 41.78514 -87.74578 630 ft 9 kts 44°
2026-05-05 02:05 41.78557 -87.74526 630 ft 6 kts 36°
2026-05-05 02:06 41.78595 -87.74524 632 ft 5 kts 341°
2026-05-05 02:06 41.78619 -87.74535 633 ft 2 kts 341°
2026-05-05 02:06 41.78622 -87.74536 631 ft 0 kts 341°